Le nostre stazioni meteo in Italia

Pubblicità
Il mio iltempo24.it
Capo Frasca, Italia (16539): Temperatura & dewpoint: 30.06.2020 00:00:00 - 06.07.2020 00:00:00 (CEST)Capo Frasca, Italia (16539): velocità del vento: 30.06.2020 00:00:00 - 06.07.2020 00:00:00 (CEST)Capo Frasca, Italia (16539): direzione del vento: 30.06.2020 00:00:00 - 06.07.2020 00:00:00 (CEST)Capo Frasca, Italia (16539): reduced air pressure: 30.06.2020 00:00:00 - 06.07.2020 00:00:00 (CEST)Capo Frasca, Italia (16539): visibility: 30.06.2020 00:00:00 - 06.07.2020 00:00:00 (CEST)
Data & Tempo tt [°C] td [°C] ff [km/h] ff [kn] dd ppp [hPa] vv [km]
06.07.2020 00:00:00 - - - - - - -
05.07.2020 23:00:00 - - - - - - -
05.07.2020 22:00:00 - - - - - - -
05.07.2020 21:00:00 - - - - - - -
05.07.2020 20:00:00 22,4 19,6 13 7 O 1015,6 20
05.07.2020 19:00:00 - - - - - - -
05.07.2020 18:00:00 - - - - - - -
05.07.2020 17:00:00 24,2 21,9 15 8 O 1016,9 20
05.07.2020 16:00:00 - - - - - - -
05.07.2020 15:00:00 - - - - - - -
05.07.2020 14:00:00 23,2 21,1 15 8 OSO 1017,8 20
05.07.2020 13:00:00 - - - - - - -
05.07.2020 12:00:00 - - - - - - -
05.07.2020 11:00:00 22,2 20,7 11 6 O 1017,6 20
05.07.2020 10:00:00 - - - - - - -
05.07.2020 09:00:00 - - - - - - -
05.07.2020 08:00:00 20,8 19,6 9 5 ONO 1017,5 20
05.07.2020 07:00:00 - - - - - - -
05.07.2020 06:00:00 - - - - - - -
05.07.2020 05:00:00 - - - - - - -
05.07.2020 04:00:00 - - - - - - -
05.07.2020 03:00:00 - - - - - - -
05.07.2020 02:00:00 - - - - - - -
05.07.2020 01:00:00 - - - - - - -
05.07.2020 00:00:00 - - - - - - -
04.07.2020 23:00:00 - - - - - - -
04.07.2020 22:00:00 - - - - - - -
04.07.2020 21:00:00 - - - - - - -
04.07.2020 20:00:00 21,4 20,6 21 11 ONO 1017,1 20
04.07.2020 19:00:00 - - - - - - -
04.07.2020 18:00:00 - - - - - - -
04.07.2020 17:00:00 23,0 21,3 22 12 ONO 1016,8 20
04.07.2020 16:00:00 - - - - - - -
04.07.2020 15:00:00 - - - - - - -
04.07.2020 14:00:00 22,0 19,9 21 11 ONO 1017,5 15
04.07.2020 13:00:00 - - - - - - -
04.07.2020 12:00:00 - - - - - - -
04.07.2020 11:00:00 22,0 17,8 18 10 ONO 1017,1 20
04.07.2020 10:00:00 - - - - - - -
04.07.2020 09:00:00 - - - - - - -
04.07.2020 08:00:00 21,4 18,2 18 10 ONO 1016,2 20
04.07.2020 07:00:00 - - - - - - -
04.07.2020 06:00:00 - - - - - - -
04.07.2020 05:00:00 - - - - - - -
04.07.2020 04:00:00 - - - - - - -
04.07.2020 03:00:00 - - - - - - -
04.07.2020 02:00:00 - - - - - - -
04.07.2020 01:00:00 - - - - - - -
04.07.2020 00:00:00 - - - - - - -
03.07.2020 23:00:00 - - - - - - -
03.07.2020 22:00:00 - - - - - - -
03.07.2020 21:00:00 - - - - - - -
03.07.2020 20:00:00 21,4 18,8 26 14 NO 1014,0 25
03.07.2020 19:00:00 - - - - - - -
03.07.2020 18:00:00 - - - - - - -
03.07.2020 17:00:00 23,6 19,1 29 16 NO 1013,2 25
03.07.2020 16:00:00 - - - - - - -
03.07.2020 15:00:00 - - - - - - -
03.07.2020 14:00:00 25,0 21,7 21 11 NO 1014,2 25
03.07.2020 13:00:00 - - - - - - -
03.07.2020 12:00:00 - - - - - - -
03.07.2020 11:00:00 23,8 22,1 13 7 ONO 1013,2 20
03.07.2020 10:00:00 - - - - - - -
03.07.2020 09:00:00 - - - - - - -
03.07.2020 08:00:00 22,0 20,5 15 8 NNO 1013,1 20
03.07.2020 07:00:00 - - - - - - -
03.07.2020 06:00:00 - - - - - - -
03.07.2020 05:00:00 - - - - - - -
03.07.2020 04:00:00 - - - - - - -
03.07.2020 03:00:00 - - - - - - -
03.07.2020 02:00:00 - - - - - - -
03.07.2020 01:00:00 - - - - - - -
03.07.2020 00:00:00 - - - - - - -
02.07.2020 23:00:00 - - - - - - -
02.07.2020 22:00:00 - - - - - - -
02.07.2020 21:00:00 - - - - - - -
02.07.2020 20:00:00 23,4 22,4 9 5 ONO 1012,0 18
02.07.2020 19:00:00 - - - - - - -
02.07.2020 18:00:00 - - - - - - -
02.07.2020 17:00:00 25,2 23,3 16 9 O 1011,9 12
02.07.2020 16:00:00 - - - - - - -
02.07.2020 15:00:00 - - - - - - -
02.07.2020 14:00:00 24,8 22,9 13 7 O 1012,1 10
02.07.2020 13:00:00 - - - - - - -
02.07.2020 12:00:00 - - - - - - -
02.07.2020 11:00:00 23,8 23,0 9 5 O 1011,7 10
02.07.2020 10:00:00 - - - - - - -
02.07.2020 09:00:00 - - - - - - -
02.07.2020 08:00:00 22,4 21,2 8 4 SSO 1010,5 8
02.07.2020 07:00:00 - - - - - - -
02.07.2020 06:00:00 - - - - - - -
02.07.2020 05:00:00 - - - - - - -
02.07.2020 04:00:00 - - - - - - -
02.07.2020 03:00:00 - - - - - - -
02.07.2020 02:00:00 - - - - - - -
02.07.2020 01:00:00 - - - - - - -
02.07.2020 00:00:00 - - - - - - -
01.07.2020 23:00:00 - - - - - - -
01.07.2020 22:00:00 - - - - - - -
01.07.2020 21:00:00 - - - - - - -
01.07.2020 20:00:00 24,2 22,1 11 6 ONO 1010,7 25
01.07.2020 19:00:00 - - - - - - -
01.07.2020 18:00:00 - - - - - - -
01.07.2020 17:00:00 28,0 20,0 15 8 SO 1010,7 25
01.07.2020 16:00:00 - - - - - - -
01.07.2020 15:00:00 - - - - - - -
01.07.2020 14:00:00 26,0 20,6 15 8 SO 1011,5 25
01.07.2020 13:00:00 - - - - - - -
01.07.2020 12:00:00 - - - - - - -
01.07.2020 11:00:00 28,4 19,4 11 6 E 1011,8 25
01.07.2020 10:00:00 - - - - - - -
01.07.2020 09:00:00 - - - - - - -
01.07.2020 08:00:00 21,0 19,5 8 4 ENE 1012,4 25
01.07.2020 07:00:00 - - - - - - -
01.07.2020 06:00:00 - - - - - - -
01.07.2020 05:00:00 - - - - - - -
01.07.2020 04:00:00 - - - - - - -
01.07.2020 03:00:00 - - - - - - -
01.07.2020 02:00:00 - - - - - - -
01.07.2020 01:00:00 - - - - - - -
01.07.2020 00:00:00 - - - - - - -
30.06.2020 23:00:00 - - - - - - -
30.06.2020 22:00:00 - - - - - - -
30.06.2020 21:00:00 - - - - - - -
30.06.2020 20:00:00 23,2 21,5 9 5 ONO 1013,6 25
30.06.2020 19:00:00 - - - - - - -
30.06.2020 18:00:00 - - - - - - -
30.06.2020 17:00:00 25,0 23,1 13 7 O 1014,5 25
30.06.2020 16:00:00 - - - - - - -
30.06.2020 15:00:00 - - - - - - -
30.06.2020 14:00:00 24,6 21,7 15 8 O 1014,8 25
30.06.2020 13:00:00 - - - - - - -
30.06.2020 12:00:00 - - - - - - -
30.06.2020 11:00:00 24,6 20,3 8 4 NNO 1014,8 20
30.06.2020 10:00:00 - - - - - - -
30.06.2020 09:00:00 - - - - - - -
30.06.2020 08:00:00 21,6 19,7 4 2 NNO 1014,4 15
30.06.2020 07:00:00 - - - - - - -
30.06.2020 06:00:00 - - - - - - -
30.06.2020 05:00:00 - - - - - - -
30.06.2020 04:00:00 - - - - - - -
30.06.2020 03:00:00 - - - - - - -
30.06.2020 02:00:00 - - - - - - -
30.06.2020 01:00:00 - - - - - - -
30.06.2020 00:00:00 - - - - - - -

tt = Temperatura
td = dewpoint
ff = velocità del vento
dd = direzione del vento
ppp = reduced air pressure
vv = visibility

Stazioni seguenti

WeatherPro
AMSI
MeteoEarth